Simultaneous Nadir Overpasses (SNOs) Predictions

Prediction of SNOs between LANDSAT-8 and METOP-A Satellite Orbit:

Table of predicted SNOs for the next 14.0 days since TLE Epoch: 5/7/2018
Index Date (LANDSAT-8) Time (LANDSAT-8) Lat,Lon (LANDSAT-8) SZA (LANDSAT-8 ) Date (METOP-A) Time (METOP-A) Lat,Lon (METOP-A) SZA (METOP-A ) Distance(km) Time Diff (sec)
1 05/07/2018 10:23:26 81.32, 66.61 66.90 05/07/2018 10:23:20 81.33, 66.77 66.92 2.75 6
2 05/07/2018 11:12:52 -81.34,-125.49 113.07 05/07/2018 11:14:00 -81.34,-125.49 113.04 0.17 68
3 05/10/2018 05:08:26 -81.03, -39.33 114.55 05/10/2018 05:07:12 -81.17, -39.74 114.51 17.76 74
4 05/10/2018 05:57:39 81.33, 133.19 66.18 05/10/2018 05:57:38 81.33, 133.11 66.17 1.31 1
5 05/10/2018 06:47:05 -81.35, -58.89 113.80 05/10/2018 06:48:17 -81.35, -58.74 113.75 2.44 72
6 05/13/2018 00:42:26 -81.31, 31.64 114.58 05/13/2018 00:41:16 -81.32, 31.59 114.62 0.93 70
7 05/13/2018 01:31:51 81.34,-160.27 65.48 05/13/2018 01:31:54 81.34,-160.17 65.49 1.73 3
8 05/15/2018 20:16:39 -81.32, 98.17 115.24 05/15/2018 20:15:33 -81.32, 98.31 115.25 2.33 66
9 05/15/2018 21:06:04 81.34, -93.76 64.82 05/15/2018 21:06:12 81.33, -93.84 64.81 1.63 8
10 05/18/2018 15:50:52 -81.32, 164.68 115.87 05/18/2018 15:49:51 -81.32, 164.63 115.90 0.87 61




NCC Satellite Simultaneous Nadir Overpasses (SNOs) Prediction Service
